Providence, RI

4:50 PM EDT on September 20, 2017 (GMT -0400)
Green State

Weather History for KPVD - July, 2014

Change the Weather History Date:

Friday, July 11, 2014

  Actual Average Record
Temperature  
Mean Temperature 74 °F 73 °F  
Max Temperature 83 °F 83 °F 97 °F (1988)
Min Temperature 64 °F 64 °F 53 °F (1953)
Degree Days  
Heating Degree Days 0 0  
Month to date heating degree days 0 0  
Since 1 June heating degree days 13 43  
Since 1 July heating degree days 0 0  
Cooling Degree Days 9 9  
Month to date cooling degree days 125 87  
Year to date cooling degree days 239 245  
Since 1 June cooling degree days 228 219  
Growing Degree Days 24 (Base 50)    
Moisture  
Dew Point 59 °F    
Average Humidity 63    
Maximum Humidity 81    
Minimum Humidity 45    
Precipitation  
Precipitation 0.00 in 0.11 in 1.75 in (1959)
Month to date precipitation 2.68 1.03  
Year to date precipitation 27.84 24.74  
Snow  
Snow 0.00 in 0.00 in 0.00 in (2002)
Month to date snowfall 0.0 0.0  
Since 1 June snowfall 0.0 0.0  
Since 1 July snowfall 0.0 0.0  
Snow Depth 0.00 in    
Sea Level Pressure  
Sea Level Pressure 30.19 in    
Wind  
Wind Speed 6 mph (South)    
Max Wind Speed 16 mph    
Max Gust Speed 20 mph    
Visibility 10 miles    
Events      
T = Trace of Precipitation, MM = Missing Value Source: NWS Daily Summary

Daily Weather History Graph

Daily Weather History Graph

Search for Another Location

Airport or City:

Trip Planner

Search our weather history database for the weather conditions in past years. The results will help you decide how hot, cold, wet, or windy it might be!

Date:

Astronomy

Jul. 11, 2014 Rise Set
Actual Time 5:21 AM EDT 8:20 PM EDT
Civil Twilight 4:47 AM EDT 8:54 PM EDT
Nautical Twilight 4:05 AM EDT 9:36 PM EDT
Astronomical Twilight 3:15 AM EDT 10:26 PM EDT
Moon 7:27 PM EDT (7/11) 4:31 AM EDT (7/11)
Length of Visible Light 16h 06m
Length of Day
14h 59m
Waxing Gibbous, 99% of the Moon is Illuminated
Jul 11
Waxing Gibbous
Jul 12
Full
Jul 18
Last Quarter
Jul 26
New
Aug 3
First Quarter

Hourly Weather History & Observations

Time (EDT) Temp. Heat Index Dew Point Humidity Pressure Visibility Wind Dir Wind Speed Gust Speed Precip Events Conditions
12:51 AM 69.1 °F - 62.1 °F 78% 30.15 in 10.0 mi SW 3.5 mph - N/A   Clear
1:51 AM 68.0 °F - 62.1 °F 81% 30.14 in 10.0 mi WNW 3.5 mph - N/A   Clear
2:51 AM 68.0 °F - 63.0 °F 84% 30.14 in 10.0 mi NW 4.6 mph - N/A   Clear
3:51 AM 68.0 °F - 63.0 °F 84% 30.14 in 10.0 mi NW 3.5 mph - N/A   Clear
4:51 AM 66.9 °F - 60.1 °F 79% 30.15 in 10.0 mi NNW 5.8 mph - N/A   Clear
5:51 AM 66.2 °F - 59.0 °F 78% 30.17 in 10.0 mi NNW 5.8 mph - N/A   Overcast
6:51 AM 66.9 °F - 57.9 °F 73% 30.18 in 10.0 mi North 5.8 mph - N/A   Overcast
7:51 AM 68.0 °F - 59.0 °F 73% 30.20 in 10.0 mi NNE 6.9 mph - N/A   Mostly Cloudy
8:51 AM 71.1 °F - 59.0 °F 66% 30.21 in 10.0 mi NNE 9.2 mph - N/A   Mostly Cloudy
9:51 AM 75.0 °F - 59.0 °F 57% 30.22 in 10.0 mi NE 8.1 mph - N/A   Scattered Clouds
10:51 AM 77.0 °F - 59.0 °F 54% 30.21 in 10.0 mi NNE 4.6 mph - N/A   Partly Cloudy
11:51 AM 79.0 °F - 60.1 °F 52% 30.21 in 10.0 mi East 4.6 mph - N/A   Partly Cloudy
12:51 PM 79.0 °F - 59.0 °F 50% 30.20 in 10.0 mi South 3.5 mph - N/A   Scattered Clouds
1:51 PM 80.6 °F 81.5 °F 60.8 °F 51% 30.18 in 10.0 mi East 6.9 mph - N/A   Mostly Cloudy
2:51 PM 80.1 °F 80.6 °F 57.9 °F 47% 30.17 in 10.0 mi SSE 5.8 mph - N/A   Mostly Cloudy
3:51 PM 80.6 °F 81.5 °F 60.8 °F 51% 30.18 in 10.0 mi South 11.5 mph - N/A   Mostly Cloudy
4:51 PM 79.0 °F - 61.0 °F 54% 30.18 in 10.0 mi South 10.4 mph - N/A   Mostly Cloudy
5:51 PM 77.0 °F - 57.0 °F 50% 30.18 in 10.0 mi SSE 10.4 mph - N/A   Mostly Cloudy
6:51 PM 73.9 °F - 61.0 °F 64% 30.19 in 10.0 mi SSE 12.7 mph - N/A   Mostly Cloudy
7:51 PM 73.0 °F - 55.9 °F 55% 30.21 in 10.0 mi South 8.1 mph - N/A   Mostly Cloudy
8:51 PM 70.0 °F - 55.0 °F 59% 30.21 in 10.0 mi South 5.8 mph - N/A   Scattered Clouds
9:51 PM 68.0 °F - 57.2 °F 68% 30.23 in 10.0 mi South 4.6 mph - N/A   Partly Cloudy
10:51 PM 66.9 °F - 57.0 °F 70% 30.23 in 10.0 mi SW 3.5 mph - N/A   Partly Cloudy
11:51 PM 66.0 °F - 57.0 °F 73% 30.23 in 10.0 mi SW 3.5 mph - N/A   Partly Cloudy